STARLINK-36705, 67712

Orbit data source: Space-Track

STARLINK-36705, 67712 is a payload satellite owned by SpaceX/Seattle (US) in SSO that was launched on Sat, 07 Feb 2026 UTC via an FALCON 9 launch vehicle from the Air Force Western Test Range (AFWTR). Payload-class satellites include a variety of spacecraft equipped with specific instruments for various scientific and technological missions. These include communications satellites like Starlink; space stations such as the ISS; scientific satellites like the Hubble; Earth observation satellites from companies like Planet Labs, Umbra, and HawkEye 360; GPS; miniature CubeSats for education and research; and military/defense satellites.

Loading next visibility...
Identifier
67712, 2026-025V
Orbit
SSO
Country
Flag of USUS
Related business
Manufacturer
SpaceX/Seattle
Mission
Operational spacecraft
Bus & Motor
STARLINK V2MO, Unknown motor
Mass
575 kg wet, ~530 kg dry
Launch date (UTC)
2026-02-07 (1 month ago)
Launch vehicle
FALCON 9
Launch site
Air Force Western Test Range (AFWTR)
Object type
Payload
Rocket body
Debris
Shape & HBR
Unknown
Radar Cross Section
RCS unknown

Expand to show TLE details & history
Last TLE update: 14 hours ago

TLE from 14 hours ago
0 STARLINK-36705
1 67712U 26025V   26071.73842229  .00360693  00000-0  23025-2 0  9992
2 67712  97.2857 183.5208 0002008 308.1033  52.0051 15.75349133  6424
Epoch: 2026-03-12T17:43Z
TLE epoch observation values (Epoch: 2026-03-12T17:43:19.685Z)
Latitude
-0.00005°
Longitude
107.30479°
Altitude
345.975 km
Speed
7.702 km/s
True Right ascension
12h 14m 04s
True Declination
0° 00' 00"
Sunlit
Object was in full shadow at epoch
Visualization orbit readout
Latitude
Unknown
Longitude
Unknown
Altitude
Unknown
Speed
Unknown
Apparent Right ascension
Unknown
Apparent Declination
Unknown
Sunlit
N/A
Visualization observer readout
Local Sidereal Time
12:05:51
Azimuth
Unknown
Elevation
Unknown
Doppler factor
Unknown
Orbital elements
Apogee altitude
341.874 km
Perigee altitude
339.176 km
Semi-major axis
6,718.662 km
Eccentricity
0.0002
Inclination
97.2857°
RAAN
183.5208°
Arg. of periapsis
308.1033°
True anomaly
52.02324°
Mean anomaly
52.0051°
Eccentric anomaly
52.01417°
Mean motion
3.94111 °/min
Orbital period
91.34 mins
BSTAR
0.0023025
Loading maneuver chart data...
Computing Atmospheric mass density...
Loading historical data...
Loading historical data...
Loading historical data...
Loading historical data...
Loading historical data...
Loading historical data...
Loading historical data...

Documentation

Showing up to 5 results
|